Weather History for De Queen, AR

Change the Weather History Date:

Monday, October 11, 2010

  Actual Average Record
Temperature  
Mean Temperature 62 °F 65 °F  
Max Temperature 74 °F 77 °F 95 °F (1963)
Min Temperature 50 °F 52 °F 31 °F (2000)
Degree Days  
Heating Degree Days 3 3  
Month to date heating degree days 39 25  
Since 1 July heating degree days 46 34  
Cooling Degree Days 0 2  
Month to date cooling degree days 8 36  
Year to date cooling degree days 2273 1901  
Growing Degree Days 12 (Base 50)    
Moisture  
Dew Point 57 °F    
Average Humidity 82    
Maximum Humidity 100    
Minimum Humidity 64    
Precipitation  
Precipitation 0.35 in 0.13 in 2.98 in (2014)
Month to date precipitation 0.35 1.62  
Year to date precipitation 25.60 36.82  
Snow  
Snow 0.00 in - - ()
Month to date snowfall 0.0  
Since 1 July snowfall 0.0  
Since 1 September snowfall 0.0  
Snow Depth 0.00 in    
Sea Level Pressure  
Sea Level Pressure 29.88 in    
Wind  
Wind Speed 4 mph (South)    
Max Wind Speed 21 mph    
Max Gust Speed 28 mph    
Visibility 6 miles    
Events Fog , Rain , Thunderstorm    
T = Trace of Precipitation, MM = Missing Value Source: NWS Daily Summary

Daily Weather History Graph

Daily Weather History Graph

Search for Another Location

Airport:

Trip Planner

Search our weather history database for the weather conditions in past years. The results will help you decide how hot, cold, wet, or windy it might be!

Date:

Astronomy

Oct. 11, 2010 Rise Set
Actual Time 7:19 AM CDT 6:48 PM CDT
Civil Twilight 6:54 AM CDT 7:13 PM CDT
Nautical Twilight 6:25 AM CDT 7:42 PM CDT
Astronomical Twilight 5:56 AM CDT 8:11 PM CDT
Moon 11:42 AM CDT (10/11) 9:41 PM CDT (10/11)
Length of Visible Light 12h 19m
Length of Day
11h 28m
Waxing Crescent, 19% of the Moon is Illuminated
Oct 11
Waxing Crescent
Oct 14
First Quarter
Oct 22
Full
Oct 30
Last Quarter
Nov 5
New

Hourly Weather History & Observations

Time (CDT) Temp. Dew Point Humidity Pressure Visibility Wind Dir Wind Speed Gust Speed Precip Events Conditions
12:53 AM 53.1 °F 51.1 °F 93% 29.86 in 10.0 mi NNE 3.5 mph - N/A   Clear
1:53 AM 53.1 °F 50.0 °F 89% 29.87 in 10.0 mi Calm Calm - N/A   Clear
2:53 AM 53.1 °F 50.0 °F 89% 29.88 in 10.0 mi NNE 3.5 mph - N/A   Clear
3:53 AM 51.1 °F 50.0 °F 96% 29.88 in 9.0 mi Calm Calm - N/A   Clear
4:53 AM 52.0 °F 51.1 °F 97% 29.88 in 8.0 mi Calm Calm - N/A   Clear
5:53 AM 51.1 °F 50.0 °F 96% 29.87 in 9.0 mi Calm Calm - N/A   Clear
6:53 AM 52.0 °F 51.1 °F 97% 29.91 in 9.0 mi Calm Calm - N/A   Clear
7:27 AM 53.6 °F 51.8 °F 94% 29.96 in 8.0 mi WSW 8.1 mph - N/A Thunderstorm Mostly Cloudy
7:53 AM 55.0 °F 53.1 °F 93% 29.96 in 5.0 mi WSW 3.5 mph - 0.02 in Rain , Thunderstorm Light Rain
8:00 AM 53.6 °F 53.6 °F 100% 29.97 in 7.0 mi Calm Calm - 0.00 in Rain , Thunderstorm Light Thunderstorms and Rain
8:42 AM 57.2 °F 57.2 °F 100% 29.98 in 2.5 mi ESE 3.5 mph - 0.16 in Rain , Thunderstorm Heavy Thunderstorms and Rain
8:53 AM 57.0 °F 57.0 °F 100% 29.94 in 1.5 mi East 9.2 mph - 0.23 in Rain , Thunderstorm Heavy Thunderstorms and Rain
9:03 AM 59.0 °F 59.0 °F 100% 29.92 in 3.0 mi East 10.4 mph - 0.05 in Rain , Thunderstorm Heavy Thunderstorms and Rain
9:18 AM 60.8 °F 57.2 °F 88% 29.89 in 6.0 mi East 13.8 mph 20.7 mph 0.09 in Rain , Thunderstorm Thunderstorms and Rain
9:45 AM 62.6 °F 57.2 °F 82% 29.85 in 10.0 mi ESE 13.8 mph 27.6 mph 0.10 in Rain Light Rain
9:53 AM 62.1 °F 57.0 °F 84% 29.86 in 10.0 mi SE 12.7 mph 21.9 mph 0.10 in Rain Light Rain
10:53 AM 61.0 °F 59.0 °F 93% 29.90 in 10.0 mi West 3.5 mph - N/A   Clear
11:53 AM 64.0 °F 59.0 °F 84% 29.90 in 10.0 mi Calm Calm - N/A   Clear
12:53 PM 68.0 °F 61.0 °F 78% 29.89 in 10.0 mi SSW 8.1 mph - N/A   Partly Cloudy
1:53 PM 71.1 °F 61.0 °F 70% 29.86 in 10.0 mi SSW 9.2 mph - N/A   Partly Cloudy
2:53 PM 73.9 °F 61.0 °F 64% 29.83 in 10.0 mi SW 10.4 mph - N/A   Scattered Clouds
3:02 PM 73.4 °F 60.8 °F 65% 29.84 in 10.0 mi SSW 11.5 mph - N/A   Mostly Cloudy
3:20 PM 73.4 °F 60.8 °F 65% 29.83 in 10.0 mi SSW 9.2 mph - N/A   Overcast
3:53 PM 73.0 °F 62.1 °F 68% 29.83 in 10.0 mi SW 9.2 mph - N/A   Overcast
4:53 PM 73.0 °F 63.0 °F 71% 29.82 in 10.0 mi SW 11.5 mph - N/A   Overcast
5:53 PM 72.0 °F 63.0 °F 73% 29.83 in 10.0 mi SSW 5.8 mph - N/A   Overcast
6:53 PM 70.0 °F 63.0 °F 78% 29.84 in 10.0 mi South 3.5 mph - N/A   Mostly Cloudy
7:53 PM 64.9 °F 62.1 °F 90% 29.85 in 10.0 mi Calm Calm - N/A   Clear
8:53 PM 62.1 °F 62.1 °F 100% 29.88 in 9.0 mi SSW 3.5 mph - N/A   Clear
9:53 PM 61.0 °F 61.0 °F 100% 29.88 in 8.0 mi Calm Calm - N/A   Clear
10:19 PM 60.8 °F 60.8 °F 100% 29.89 in 1.5 mi Calm Calm - N/A   Clear
10:22 PM 60.8 °F 60.8 °F 100% 29.89 in 0.8 mi Calm Calm - N/A   Mist
10:32 PM 59.0 °F 59.0 °F 100% 29.89 in 1.2 mi Calm Calm - N/A   Partly Cloudy
10:41 PM 59.0 °F 59.0 °F 100% 29.89 in 3.0 mi Calm Calm - N/A   Partly Cloudy
10:46 PM 57.2 °F 57.2 °F 100% 29.89 in 1.5 mi Calm Calm - N/A   Partly Cloudy
10:48 PM 57.2 °F 57.2 °F 100% 29.89 in 0.8 mi Calm Calm - N/A   Mist
10:53 PM 57.0 °F 57.0 °F 100% 29.89 in 0.2 mi Calm Calm - N/A Fog Fog
11:05 PM 57.2 °F 57.2 °F 100% 29.89 in 0.5 mi Calm Calm - N/A Fog Fog
11:24 PM 57.2 °F 57.2 °F 100% 29.89 in 0.2 mi Calm Calm - N/A Fog Fog
11:35 PM 55.4 °F 55.4 °F 100% 29.89 in 0.8 mi Calm Calm - N/A   Mist
11:53 PM 55.9 °F 55.9 °F 100% 29.88 in 0.2 mi Calm Calm - N/A Fog Fog